Powrót do katalogu

NOAA 16 DEB

AktywnySSO
NORAD 41660·DEBRIS·🇺🇸 United States

Wystrzelony Sep 21, 2000 z Vandenberg Space Force Base

Loading…

Następne Przeloty (najbliższe 24 godziny)

TLE

ŚwieżeSource: Space-Track

Epoka: Sep 13, 2026, 02:26 UTC

1 41660U 00055NZ  26256.10204465  .00003440  00000-0  10917-2 0  9991
2 41660  98.7455   8.6761 0016378 238.0846 121.8749 14.40587962540132

Śledź NOAA 16 DEB w czasie rzeczywistym z AllMySat

Download on the App Store